Location: Newark
(48.6461°N, 4.3644°W)
Time: 14:16:24
(UTC+00:00)

A-11 Canister half - Pass Details

Date: 29 January 2020
Orbit: 1517 x 1683 km, 47.2° (Epoch: 28 February)

Event Time Altitude Azimuth Distance (km) Brightness Sun altitude
Exits shadow 05:34:50 31° 246° (WSW) 2,427 9.5 -22.6°
Maximum altitude 05:36:59 34° 221° (SW) 2,300 9.6 -22.2°
Drops below altitude 10° 05:45:01 10° 161° (SSE) 3,704 11.3 -20.9°
Sets 05:48:26 0° 152° (SSE) 4,703 12.0 -20.3°
